[[{"header":{"parameterUnit":"m.s-1","parameterCategory":1,"la1":30.2991,"la2":30.254,"lo1":-89.0895,"lo2":-89.0444,"dy":0.0017,"dx":0.0017,"nx":28,"ny":28,"refTime":"2023-09-05T09:00:00:Z","depth":0,"parameterNumber":2,"parameterNumberName":"U-component_of_WINDS"},"data":[0,0,0,0,0,0,0,0,0,0,0,0,0,0,0,0,0,0,0,0,0,0,0,0,0,0,0,0,0,0,0,0,0,0,0,0,0,0,0,0,0,0,0,0,0,0,0,0,0,0,0,0,0,0,0,0,0,0,-4.2647,-4.2648,0,-4.274,-4.2741,-4.2742,-4.2717,-4.2715,-4.2714,-4.2712,-4.2805,-4.2809,-4.2813,0,0,0,0,0,0,0,0,0,0,0,0,0,-4.2445,-4.2449,-4.2646,-4.2648,-4.2649,-4.2739,-4.2741,-4.2742,-4.2718,-4.2715,-4.2713,-4.2711,-4.2804,-4.2809,-4.2814,0,0,0,0,0,0,0,0,0,0,0,0,0,-4.2535,-4.245,-4.2646,-4.2648,-4.2649,-4.2739,-4.2741,-4.2742,-4.2718,-4.2715,-4.2713,-4.271,-4.2802,-4.2808,-4.2814,-4.2909,0,0,-4.2834,-4.2836,0,0,0,0,0,0,0,0,-4.2529,-4.2542,-4.2646,-4.2648,-4.2649,-4.2714,-4.2704,-4.2798,-4.2719,-4.2692,-4.2712,-4.2709,-4.2777,-4.2785,-4.2809,-4.2913,-4.2917,-4.2834,-4.2838,-4.2841,-4.2842,0,0,0,0,0,0,0,-4.2523,-4.2538,-4.2683,-4.2648,-4.2649,-4.2643,-4.2652,-4.2722,-4.2749,-4.2694,-4.2692,-4.2704,-4.2777,-4.2803,-4.2811,-4.2918,-4.2834,-4.284,-4.2843,-4.2846,-4.3103,-4.3105,0,0,0,0,0,0,-4.2516,-4.2533,-4.268,-4.2686,-4.2581,-4.2649,-4.2659,-4.2696,-4.2748,-4.2753,-4.2706,-4.2702,-4.2793,-4.2803,-4.2814,-4.2925,-4.2841,-4.2847,-4.285,-4.31,-4.3103,-4.3107,0,0,0,0,0,0,-4.2512,-4.253,-4.2676,-4.2609,-4.2627,-4.2655,-4.2696,-4.2699,-4.2725,-4.2757,-4.2761,-4.2727,-4.2791,-4.2805,-4.2885,-4.2928,-4.2849,-4.2855,-4.3096,-4.3101,-4.3105,-4.3151,0,0,0,0,0,0,-4.2506,-4.2528,-4.2565,-4.261,-4.2631,-4.2747,-4.2699,-4.2703,-4.2736,-4.2732,-4.2778,-4.2783,-4.279,-4.2876,-4.2891,-4.2936,-4.286,-4.3092,-4.3098,-4.3103,-4.3146,-4.3156,-4.3166,0,0,0,0,0,-4.2499,-4.2574,-4.2567,-4.2585,-4.2678,-4.275,-4.2761,-4.2769,-4.274,-4.2776,-4.2797,-4.2782,-4.2922,-4.2884,-4.2901,-4.2948,-4.3089,-4.3096,-4.3103,-4.3141,-4.3154,-4.3166,0,0,0,0,0,0,-4.2533,-4.258,-4.2573,-4.2665,-4.2703,-4.2745,-4.2792,-4.2783,-4.283,-4.2824,-4.2831,-4.2841,-4.2923,-4.2944,-4.2901,-4.3041,-4.3001,-4.3012,-4.3024,-4.3037,-4.3047,-4.3039,-4.2865,0,0,0,0,0,-4.2552,-4.2607,-4.2645,-4.2722,-4.2742,-4.2764,-4.2795,-4.2798,-4.2838,-4.2854,-4.288,-4.2919,-4.2971,-4.3006,-4.3056,-4.3149,-4.3158,-4.319,-4.32,-4.3208,-4.3217,-4.3265,-4.3279,-4.3129,-4.3129,-4.3129,0,0,-4.259,-4.2622,-4.2657,-4.273,-4.276,-4.2816,-4.2778,-4.2839,-4.288,-4.2863,-4.2939,-4.296,-4.3004,-4.309,-4.313,-4.311,-4.3261,-4.3217,-4.3223,-4.3227,-4.3274,-4.3288,-4.3301,-4.3134,-4.3133,-4.3132,0,0,-4.2687,-4.2719,-4.2785,-4.2816,-4.2863,-4.2876,-4.2893,-4.2936,-4.2949,-4.3027,-4.3014,-4.3063,-4.3154,-4.3185,-4.3213,-4.3322,-4.3308,-4.3338,-4.339,-4.3437,-4.3449,-4.3459,-4.3496,-4.3509,-4.3347,-4.3347,-4.3347,0,-4.2728,-4.2813,-4.2821,-4.2883,-4.2914,-4.2902,-4.2969,-4.2999,-4.3059,-4.3081,-4.3059,-4.3172,-4.32,-4.3293,-4.3319,-4.3343,-4.336,-4.3331,-4.3447,-4.3457,-4.3467,-4.3502,-4.3516,-4.335,-4.3349,-4.3349,-4.3349,0,-4.286,-4.2919,-4.2967,-4.3025,-4.3063,-4.3127,-4.3143,-4.318,-4.318,-4.3195,-4.3273,-4.3308,-4.3363,-4.3386,-4.3386,-4.3478,-4.3465,-4.3445,-4.3404,-4.3484,-4.3517,-4.353,-4.3354,-4.3353,-4.3352,-4.3351,0,0,-4.298,-4.3042,-4.3059,-4.3085,-4.3135,-4.318,-4.3243,-4.3298,-4.3329,-4.3371,-4.3422,-4.35,-4.3481,-4.3513,-4.3516,-4.3558,-4.3639,-4.3533,-4.3534,-4.3549,-4.374,-4.3753,-4.3768,-4.3632,-4.3635,-4.3637,-4.3735,0,-4.308,-4.3191,-4.32,-4.33,-4.3353,-4.3342,-4.3397,-4.3433,-4.3449,-4.3496,-4.3514,-4.3568,-4.3541,-4.3559,-4.3601,-4.3621,-4.3677,-4.3614,-4.3678,-4.368,-4.3665,-4.3786,-4.3799,-4.3891,-4.3749,-4.3751,-4.3752,0,-4.3211,-4.3257,-4.3362,-4.3403,-4.3425,-4.3474,-4.3525,-4.3571,-4.3611,-4.362,-4.3655,-4.3652,-4.3715,-4.3674,-4.3761,-4.3718,-4.3745,-4.3759,-4.3762,-4.3766,-4.3719,-4.379,-4.3921,-4.3933,-4.3773,-4.3771,-4.377,0,-4.3285,-4.3373,-4.3446,-4.3469,-4.352,-4.3554,-4.3576,-4.3614,-4.3646,-4.3691,-4.3711,-4.3762,-4.379,-4.3829,-4.384,-4.3809,-4.3925,-4.3885,-4.3932,-4.3932,-4.3955,-4.3953,-4.4089,-4.3977,-4.3977,-4.3977,-4.3977,0,-4.3394,-4.3458,-4.348,-4.3525,-4.3596,-4.3605,-4.3675,-4.3696,-4.3729,-4.3777,-4.3772,-4.3816,-4.3829,-4.3876,-4.3886,-4.3954,-4.3967,-4.3975,-4.3976,-4.3974,-4.3973,-4.399,-4.3983,-4.3981,-4.398,-4.3979,-4.3978,0,-4.3487,-4.3505,-4.3584,-4.3626,-4.3638,-4.3688,-4.3723,-4.3765,-4.3781,-4.3842,-4.3856,-4.3881,-4.3936,-4.3951,-4.4017,-4.4023,-4.4103,-4.41,-4.409,-4.4089,-4.4134,-4.4129,-4.4283,-4.4303,-4.4181,-4.4182,-4.4183,0,-4.3555,-4.3603,-4.365,-4.3682,-4.3706,-4.3757,-4.379,-4.3801,-4.3835,-4.3884,-4.392,-4.3975,-4.4018,-4.4106,-4.413,-4.418,-4.4176,-4.4227,-4.4183,-4.4179,-4.4173,-4.4169,-4.4173,-4.4234,-4.4235,-4.4236,-4.4237,0,-4.3671,-4.3677,-4.3725,-4.3775,-4.3814,-4.3855,-4.3893,-4.392,-4.3936,-4.3974,-4.403,-4.4064,-4.4132,-4.4185,-4.4235,-4.4257,-4.4249,-4.4251,-4.4264,-4.4261,-4.4252,-4.4255,-4.4109,-4.4247,-4.4246,-4.4245,-4.4245,-4.4244,-4.3752,-4.3794,-4.3833,-4.3885,-4.3916,-4.3952,-4.3993,-4.4014,-4.4061,-4.4116,-4.412,-4.4181,-4.4218,-4.4285,-4.4311,-4.4357,-4.4342,-4.4361,-4.4366,-4.437,-4.4372,-4.4247,-4.4367,-4.4366,-4.4366,-4.4366,-4.4366,0,-4.3866,-4.389,-4.3939,-4.3992,-4.4034,-4.4024,-4.4066,-4.41,-4.4153,-4.419,-4.4233,-4.4296,-4.4348,-4.4375,-4.4426,-4.4458,-4.4455,-4.4471,-4.4467,-4.4472,-4.4384,-4.4367,-4.4472,-4.4472,-4.4472,-4.4472,-4.4472,-4.4472,-4.393,-4.4,-4.401,-4.4095,-4.4119,-4.4177,-4.4202,-4.4234,-4.4263,-4.4334,-4.4377,-4.4395,-4.4427,-4.448,-4.4526,-4.4533,-4.4551,-4.4568,-4.4572,-4.4489,-4.4478,-4.4468,-4.4451,-4.4572,-4.4572,-4.4655,-4.4656,-4.4657]},{"header":{"parameterUnit":"m.s-1","parameterCategory":1,"la1":30.2991,"la2":30.254,"lo1":-89.0895,"lo2":-89.0444,"dy":0.0017,"dx":0.0017,"nx":28,"ny":28,"refTime":"2023-09-05T09:00:00:Z","depth":0,"parameterNumber":3,"parameterNumberName":"V-component_of_WINDS"},"data":[0,0,0,0,0,0,0,0,0,0,0,0,0,0,0,0,0,0,0,0,0,0,0,0,0,0,0,0,0,0,0,0,0,0,0,0,0,0,0,0,0,0,0,0,0,0,0,0,0,0,0,0,0,0,0,0,0,0,3.4037,3.4037,0,3.4055,3.4055,3.4055,3.4011,3.401,3.4009,3.4007,3.4023,3.4025,3.4026,0,0,0,0,0,0,0,0,0,0,0,0,0,3.3963,3.3965,3.4037,3.4037,3.4038,3.4055,3.4055,3.4055,3.4012,3.401,3.4008,3.4007,3.4022,3.4024,3.4026,0,0,0,0,0,0,0,0,0,0,0,0,0,3.399,3.3965,3.4037,3.4018,3.4016,3.4055,3.4055,3.4055,3.4012,3.401,3.4008,3.4006,3.4022,3.4024,3.4027,3.4084,0,0,3.4034,3.4035,0,0,0,0,0,0,0,0,3.3988,3.3992,3.4021,3.4019,3.4018,3.4029,3.4035,3.4065,3.4012,3.4014,3.4007,3.4005,3.4026,3.4028,3.4036,3.4084,3.4085,3.4035,3.4036,3.4037,3.4038,0,0,0,0,0,0,0,3.3986,3.3991,3.4044,3.4021,3.4019,3.4008,3.4009,3.404,3.4031,3.4013,3.401,3.4013,3.4025,3.4034,3.4036,3.4085,3.4035,3.4037,3.4038,3.4039,3.4179,3.4181,0,0,0,0,0,0,3.3987,3.399,3.4043,3.4045,3.3998,3.4011,3.4012,3.4027,3.4031,3.4029,3.4015,3.4011,3.403,3.4033,3.4037,3.4102,3.4037,3.404,3.4041,3.4177,3.418,3.4182,0,0,0,0,0,0,3.3986,3.3993,3.4043,3.4016,3.4022,3.4014,3.4031,3.4029,3.4037,3.4032,3.403,3.4025,3.4029,3.4033,3.4072,3.4102,3.4041,3.4043,3.4174,3.4178,3.4181,3.4233,0,0,0,0,0,0,3.3984,3.3992,3.4014,3.4017,3.4024,3.4079,3.4033,3.4031,3.4042,3.4037,3.4041,3.404,3.4028,3.4068,3.4074,3.4104,3.4045,3.4172,3.4176,3.418,3.4229,3.4238,3.4246,0,0,0,0,0,3.3981,3.4028,3.4016,3.4022,3.4051,3.4081,3.4084,3.407,3.4045,3.4066,3.4063,3.404,3.4098,3.4073,3.4079,3.411,3.417,3.4175,3.4179,3.4225,3.4236,3.4246,0,0,0,0,0,0,3.4028,3.4028,3.4014,3.4064,3.4073,3.4073,3.41,3.4082,3.4098,3.4092,3.4073,3.4074,3.4116,3.4117,3.4089,3.4164,3.4129,3.4136,3.4162,3.4172,3.4181,3.4179,3.4047,0,0,0,0,0,3.4045,3.4069,3.4068,3.4111,3.4117,3.4108,3.412,3.4108,3.4116,3.4119,3.4119,3.4127,3.4146,3.416,3.4178,3.423,3.4229,3.4254,3.4263,3.427,3.4275,3.43,3.4311,3.4198,3.4198,3.4198,0,0,3.4078,3.4081,3.4098,3.4121,3.4126,3.4151,3.4111,3.4139,3.4157,3.4123,3.416,3.416,3.4167,3.4213,3.4232,3.4214,3.4306,3.4276,3.4282,3.4283,3.4306,3.4317,3.4326,3.4201,3.4201,3.42,0,0,3.4151,3.4157,3.4193,3.4199,3.4208,3.4202,3.4211,3.4214,3.4213,3.425,3.4225,3.4245,3.4281,3.4286,3.4294,3.437,3.4348,3.4376,3.442,3.4445,3.4454,3.4461,3.4486,3.4496,3.4382,3.4382,3.4382,0,3.4191,3.4228,3.4214,3.4243,3.4253,3.4225,3.4261,3.4268,3.4282,3.4289,3.427,3.4313,3.4316,3.4361,3.438,3.4388,3.4396,3.4374,3.4454,3.4461,3.4468,3.4492,3.4501,3.4385,3.4385,3.4384,3.4384,0,3.4275,3.4302,3.433,3.4344,3.4358,3.4391,3.438,3.4396,3.4383,3.4379,3.4416,3.4419,3.4437,3.4447,3.4435,3.449,3.4479,3.4457,3.4421,3.4482,3.4504,3.4513,3.439,3.4389,3.4388,3.4387,0,0,3.4377,3.4384,3.4394,3.44,3.4408,3.4427,3.4458,3.4476,3.4489,3.45,3.4524,3.4555,3.4535,3.4543,3.4532,3.4554,3.4612,3.4529,3.4529,3.4543,3.4671,3.4685,3.4696,3.4599,3.4601,3.4602,3.4669,0,3.4447,3.4501,3.4489,3.4541,3.4564,3.4538,3.4565,3.4572,3.4569,3.4587,3.4584,3.4605,3.4578,3.4582,3.4604,3.46,3.4637,3.4596,3.4619,3.462,3.4616,3.4708,3.4724,3.4787,3.4678,3.4679,3.468,0,3.4536,3.455,3.4605,3.4609,3.4618,3.4642,3.4657,3.4676,3.4683,3.4679,3.4689,3.4673,3.4703,3.4669,3.4708,3.468,3.469,3.4689,3.4692,3.4691,3.4652,3.4708,3.4807,3.4816,3.4694,3.4693,3.4692,0,3.4601,3.4635,3.4672,3.4678,3.4683,3.4701,3.4704,3.4709,3.4721,3.4734,3.474,3.4757,3.4765,3.4778,3.4766,3.4743,3.4807,3.4772,3.4803,3.4804,3.4816,3.4815,3.4916,3.4826,3.4826,3.4826,3.4826,0,3.468,3.4713,3.4701,3.4723,3.476,3.4746,3.4783,3.4783,3.4788,3.4809,3.4788,3.4808,3.4793,3.4811,3.4803,3.4836,3.484,3.4837,3.4834,3.4837,3.4838,3.4841,3.4836,3.4828,3.4828,3.4827,3.4827,0,3.4758,3.4751,3.4789,3.4792,3.4793,3.482,3.4821,3.4841,3.4837,3.4864,3.487,3.4863,3.4883,3.4874,3.4896,3.489,3.4932,3.4924,3.4929,3.4926,3.4957,3.4953,3.5062,3.5075,3.4979,3.498,3.4981,0,3.4807,3.4833,3.4838,3.4851,3.4855,3.4877,3.4888,3.4875,3.4888,3.4898,3.4917,3.4936,3.495,3.4984,3.4981,3.4997,3.4988,3.5025,3.499,3.4992,3.4986,3.4983,3.4985,3.5031,3.5032,3.5033,3.5034,0,3.4895,3.489,3.4908,3.4924,3.4939,3.4951,3.4961,3.4973,3.496,3.4975,3.4996,3.5008,3.503,3.5048,3.5063,3.5065,3.5047,3.5045,3.5053,3.5056,3.5057,3.5055,3.4946,3.5042,3.5041,3.5041,3.504,3.504,3.4959,3.4979,3.4986,3.5006,3.5013,3.5023,3.5042,3.504,3.5058,3.5075,3.5066,3.509,3.5097,3.5114,3.5118,3.5136,3.5122,3.5133,3.5136,3.5138,3.5141,3.5056,3.5139,3.5139,3.5139,3.5139,3.5138,0,3.5043,3.5046,3.5065,3.508,3.5096,3.5079,3.5089,3.5103,3.5125,3.5133,3.5147,3.5171,3.5189,3.5187,3.5203,3.5218,3.521,3.5222,3.522,3.522,3.5155,3.5145,3.5228,3.5228,3.5228,3.5228,3.5228,3.5228,3.5089,3.5122,3.5119,3.5155,3.5158,3.5182,3.5189,3.5198,3.5204,3.5231,3.5246,3.5245,3.5249,3.5265,3.528,3.5279,3.5285,3.53,3.5296,3.5234,3.5225,3.5217,3.5208,3.5302,3.5302,3.536,3.536,3.5361]}]]